Caribou, ME

1:07 AM EDT on June 23, 2017 (GMT -0400)
Caribou Municipal

Weather History for KCAR - May, 2013

Change the Weather History Date:

Saturday, May 4, 2013

  Actual Average Record
Temperature  
Mean Temperature 55 °F 47 °F  
Max Temperature 72 °F 58 °F 85 °F (1944)
Min Temperature 37 °F 37 °F 25 °F (1986)
Degree Days  
Heating Degree Days 10 18  
Month to date heating degree days 37 74  
Since 1 July heating degree days 8051 8840  
Cooling Degree Days 0 0  
Month to date cooling degree days 0 0  
Year to date cooling degree days 0 0  
Growing Degree Days 4 (Base 50)    
Moisture  
Dew Point 31 °F    
Average Humidity 51    
Maximum Humidity 79    
Minimum Humidity 22    
Precipitation  
Precipitation 0.00 in 0.09 in 1.39 in (1947)
Month to date precipitation T 0.38  
Year to date precipitation 8.51 10.47  
Snow  
Snow 0.00 in 0.00 in 2.90 in (1966)
Month to date snowfall 0.0 0.1  
Since 1 July snowfall 106.9 108.3  
Snow Depth 0.00 in    
Sea Level Pressure  
Sea Level Pressure 30.34 in    
Wind  
Wind Speed 3 mph (South)    
Max Wind Speed 9 mph    
Max Gust Speed 13 mph    
Visibility 10 miles    
Events      
T = Trace of Precipitation, MM = Missing Value Source: NWS Daily Summary

Daily Weather History Graph

Daily Weather History Graph

Search for Another Location

Airport or City:

Trip Planner

Search our weather history database for the weather conditions in past years. The results will help you decide how hot, cold, wet, or windy it might be!

Date:

Astronomy

May. 04, 2013 Rise Set
Actual Time 5:11 AM EDT 7:46 PM EDT
Civil Twilight 4:37 AM EDT 8:21 PM EDT
Nautical Twilight 3:54 AM EDT 9:04 PM EDT
Astronomical Twilight 3:04 AM EDT 9:54 PM EDT
Moon 2:28 AM EDT (5/4) 2:22 PM EDT (5/4)
Length of Visible Light 15h 43m
Length of Day
14h 34m
Waning Crescent, 27% of the Moon is Illuminated
May 4
Waning Crescent
May 9
New
May 18
First Quarter
May 25
Full
May 31
Last Quarter

Hourly Weather History & Observations

Time (EDT) Temp. Windchill Dew Point Humidity Pressure Visibility Wind Dir Wind Speed Gust Speed Precip Events Conditions
12:54 AM 48.0 °F - 30.9 °F 52% 30.43 in 10.0 mi SE 3.5 mph - N/A   Clear
1:54 AM 44.1 °F - 32.0 °F 63% 30.43 in 10.0 mi Calm Calm - N/A   Clear
2:54 AM 43.0 °F - 30.9 °F 62% 30.42 in 10.0 mi Calm Calm - N/A   Clear
3:54 AM 39.0 °F 36.8 °F 32.0 °F 76% 30.41 in 10.0 mi SSE 3.5 mph - N/A   Clear
4:54 AM 37.0 °F 33.3 °F 30.9 °F 79% 30.41 in 10.0 mi SSE 4.6 mph - N/A   Clear
5:54 AM 37.9 °F - 30.9 °F 76% 30.42 in 10.0 mi Calm Calm - N/A   Clear
6:54 AM 39.9 °F - 34.0 °F 79% 30.43 in 10.0 mi Calm Calm - N/A   Clear
7:54 AM 44.1 °F - 34.0 °F 68% 30.42 in 10.0 mi Calm Calm - N/A   Clear
8:54 AM 48.9 °F - 34.0 °F 56% 30.42 in 10.0 mi Calm Calm - N/A   Clear
9:54 AM 54.0 °F - 33.1 °F 45% 30.41 in 10.0 mi Calm Calm - N/A   Clear
10:54 AM 55.9 °F - 28.9 °F 36% 30.38 in 10.0 mi Calm Calm - N/A   Clear
11:54 AM 61.0 °F - 25.0 °F 25% 30.36 in 10.0 mi Calm Calm - N/A   Clear
12:54 PM 64.0 °F - 30.0 °F 28% 30.34 in 10.0 mi WNW 4.6 mph - N/A   Clear
1:54 PM 68.0 °F - 30.9 °F 25% 30.32 in 10.0 mi ESE 3.5 mph - N/A   Clear
2:54 PM 70.0 °F - 32.0 °F 25% 30.29 in 10.0 mi East 6.9 mph - N/A   Clear
3:54 PM 70.0 °F - 30.9 °F 24% 30.27 in 10.0 mi Calm Calm - N/A   Clear
4:54 PM 70.0 °F - 30.9 °F 24% 30.25 in 10.0 mi Variable 3.5 mph - N/A   Clear
5:54 PM 71.1 °F - 30.0 °F 22% 30.24 in 10.0 mi Calm Calm - N/A   Clear
6:54 PM 68.0 °F - 33.1 °F 27% 30.23 in 10.0 mi South 4.6 mph - N/A   Clear
7:54 PM 64.9 °F - 32.0 °F 29% 30.23 in 10.0 mi SW 3.5 mph - N/A   Clear
8:54 PM 63.0 °F - 32.0 °F 31% 30.24 in 10.0 mi South 3.5 mph - N/A   Clear
9:54 PM 57.9 °F - 32.0 °F 37% 30.25 in 10.0 mi SW 4.6 mph - N/A   Clear
10:54 PM 55.0 °F - 32.0 °F 42% 30.25 in 10.0 mi South 4.6 mph - N/A   Clear
11:54 PM 50.0 °F - 30.9 °F 48% 30.25 in 10.0 mi South 6.9 mph - N/A   Clear